Time_in_sec,Mx,My,Mz
1312467947.52319121,0.14770004,0.60998386,-0.88001692
1312467947.57110357,0.14911397,0.61149186,-0.87913924
1312467947.62311268,0.14889129,0.60985100,-0.88075429
1312467947.66423154,0.14924037,0.61085445,-0.87939620
1312467947.72320628,0.14911060,0.61279315,-0.88130194
1312467947.77112985,0.14920048,0.61073446,-0.88007033
1312467947.82415485,0.14747779,0.60946649,-0.87921858
1312467947.87203193,0.15003279,0.60995811,-0.88001639
1312467947.92310500,0.14726752,0.61037517,-0.88031393
1312467947.97108746,0.14903931,0.61163372,-0.88035554
1312467948.02327847,0.14833273,0.61098248,-0.87850785
1312467948.07110977,0.14820576,0.60845494,-0.88091803
1312467948.12320018,0.14954947,0.60969645,-0.87896597
1312467948.17119670,0.14843112,0.60960966,-0.88158637
1312467948.22309113,0.14853038,0.61048377,-0.87983811
1312467948.27222228,0.14864171,0.60778302,-0.87833136
1312467948.32321334,0.14714105,0.60999185,-0.88018382
1312467948.37121034,0.14846867,0.61090314,-0.88307393
1312467948.42308736,0.14972574,0.61086053,-0.88044459
1312467948.47110081,0.15059869,0.61201507,-0.88174826
1312467948.52310538,0.14787148,0.60984820,-0.87946779
1312467948.57111859,0.14953990,0.60972303,-0.88138860
1312467948.62306404,0.14851668,0.61000079,-0.88239163
1312467948.66320682,0.14724876,0.61053109,-0.88287258
1312467948.72306967,0.14987060,0.61098516,-0.88030255
1312467948.77222800,0.14811397,0.61281067,-0.88189787
1312467948.82409620,0.14784592,0.60998070,-0.87987393
1312467948.87109566,0.14742666,0.60973150,-0.88003081
1312467948.92310834,0.14880230,0.60974044,-0.88223863
1312467948.97223163,0.14907980,0.61050242,-0.88209379
1312467949.02306795,0.14792529,0.60909712,-0.88093907
1312467949.07121682,0.14781517,0.60871065,-0.88053888
1312467949.12310767,0.14785171,0.61013192,-0.88202745
1312467949.16333508,0.14869134,0.61254400,-0.88145888
1312467949.22317863,0.14856996,0.61152172,-0.88132364
1312467949.27108431,0.14808866,0.61100447,-0.88027120
1312467949.32305574,0.14907509,0.61124408,-0.87981236
1312467949.37113237,0.15012318,0.61164904,-0.88284934
1312467949.42033505,0.14890011,0.60961890,-0.88290477
1312467949.47187400,0.14780603,0.60986072,-0.88054806
1312467949.52007389,0.14816898,0.60897237,-0.88146222
1312467949.57119298,0.14983344,0.61139983,-0.88313329
1312467949.62416220,0.14800170,0.61063832,-0.88175350
1312467949.66019320,0.14936027,0.60986024,-0.88207275
1312467949.72308421,0.14855215,0.61052912,-0.88400811
1312467949.77111220,0.14914525,0.61048985,-0.88101351
1312467949.82052946,0.14788139,0.61050904,-0.88149041
1312467949.87111640,0.14811577,0.60847217,-0.88240331
1312467949.91222405,0.14674811,0.61142105,-0.88196641
1312467949.97222257,0.14761518,0.61038285,-0.88137031
1312467950.02306962,0.14974204,0.60983670,-0.88030136
1312467950.07109594,0.14778866,0.60999167,-0.88081914
1312467950.12313199,0.14921236,0.61011899,-0.88221776
1312467950.17111659,0.14885113,0.61166978,-0.88346124
1312467950.22306681,0.14870647,0.60858572,-0.88169730
1312467950.27112007,0.14814892,0.60958940,-0.87944978
1312467950.32409525,0.14868133,0.60984170,-0.87968999
1312467950.37170935,0.14864835,0.61178666,-0.88226295
1312467950.42310071,0.14879519,0.61063498,-0.88224578
1312467950.47207570,0.14813940,0.61063671,-0.88174552
1312467950.52308726,0.14730635,0.60960215,-0.87976772
1312467950.57111931,0.14981751,0.61252642,-0.88098997
1312467950.62309074,0.14910851,0.61202800,-0.88143086
1312467950.66423368,0.14848337,0.61125833,-0.88051939
1312467950.72312498,0.14818330,0.60922480,-0.88119417
1312467950.77109504,0.14940846,0.61202008,-0.88100982
1312467950.82319450,0.14830706,0.60907352,-0.87916768
1312467950.87110281,0.14869657,0.60792488,-0.87967473
1312467950.92355180,0.14936948,0.60973090,-0.88193667
1312467950.97119617,0.14852385,0.61012703,-0.88225764
1312467951.02408814,0.14781548,0.60779268,-0.87837923
1312467951.07162786,0.14765406,0.61063063,-0.88069719
1312467951.12320113,0.14816085,0.60999465,-0.88147038
1312467951.17108226,0.14970012,0.60997230,-0.88097757
1312467951.22319841,0.14791828,0.61203307,-0.88069242
1312467951.27207804,0.14729100,0.60947752,-0.88003677
1312467951.32311964,0.14930230,0.60908103,-0.88085932
1312467951.37121081,0.14965515,0.61049128,-0.88165677
1312467951.42322230,0.14719073,0.60873115,-0.88178605
1312467951.47109222,0.14795084,0.60896462,-0.88053292
1312467951.52310109,0.14715432,0.60935134,-0.88004369
1312467951.57119560,0.14907365,0.61024839,-0.88222677
1312467951.62310481,0.14952759,0.60921502,-0.88165456
1312467951.66314030,0.14868610,0.61012071,-0.88184458
1312467951.72315741,0.14687251,0.61103922,-0.88222545
1312467951.77221155,0.14907914,0.61073297,-0.87980825
1312467951.82308674,0.14826614,0.60908133,-0.87984282
1312467951.87179351,0.14743377,0.60883695,-0.88002366
1312467951.91122222,0.14793758,0.60960513,-0.88067305
1312467951.97122765,0.14832577,0.60950226,-0.88334078
1312467952.02394199,0.14683190,0.61012912,-0.88074094
1312467952.07207632,0.14854530,0.60948497,-0.88198251
1312467952.12313724,0.15062730,0.61149919,-0.88133907
1312467952.16019654,0.14851363,0.61038417,-0.88239473
1312467952.22348166,0.14672960,0.60963833,-0.88249224
1312467952.27217650,0.14891279,0.61022967,-0.88035226
1312467952.32321429,0.14737041,0.60961467,-0.88097501
1312467952.37219930,0.15006013,0.61150873,-0.88164103
1312467952.42402697,0.14858727,0.61037004,-0.88117945
1312467952.47106671,0.14686111,0.60836196,-0.88274413
1312467952.52351809,0.14686731,0.60963672,-0.88248426
1312467952.57208014,0.14978835,0.60987735,-0.88406628
1312467952.62371445,0.14804123,0.61065555,-0.88336587
1312467952.65994096,0.14824128,0.61000401,-0.88240761
1312467952.72354484,0.14791380,0.61142075,-0.88310993
1312467952.77107310,0.14801161,0.61129916,-0.88377607
1312467952.82314157,0.14692250,0.60886061,-0.88166797
1312467952.87108803,0.14914107,0.60895956,-0.88127136
1312467952.92347097,0.14841445,0.61053073,-0.88401610
1312467952.97111726,0.15027712,0.60960281,-0.88282508
1312467953.02306867,0.14738640,0.60950875,-0.88299149
1312467953.07111764,0.14771795,0.60758090,-0.88228512
1312467953.12333131,0.14797668,0.60849881,-0.88469887
1312467953.17112160,0.14790460,0.61155009,-0.88324594
1312467953.22311306,0.14895509,0.61180222,-0.88399440
1312467953.27108026,0.14763726,0.60951024,-0.88338065
1312467953.32388806,0.14863493,0.60936499,-0.88278365
1312467953.37222338,0.14997478,0.60976356,-0.88553464
1312467953.42469406,0.14785844,0.60913467,-0.88430685
1312467953.47110701,0.14817983,0.60848469,-0.88361067
1312467953.52321100,0.14793310,0.60899276,-0.88309056
1312467953.57109785,0.14881797,0.61055255,-0.88641477
1312467953.62310100,0.14778416,0.60937929,-0.88323659
1312467953.66423559,0.14879990,0.60989326,-0.88452721
1312467953.72308326,0.14748503,0.61221886,-0.88556254
1312467953.77114797,0.15050463,0.61254340,-0.88323766
1312467953.82469177,0.14768021,0.60924685,-0.88270342
1312467953.87119651,0.14716987,0.60812193,-0.88447356
1312467953.92408872,0.14929755,0.61040741,-0.88530958
1312467953.97111940,0.14926890,0.60990250,-0.88584560
1312467954.02310228,0.14770128,0.60850203,-0.88471484
1312467954.07108641,0.14831455,0.60988718,-0.88347888
1312467954.12366271,0.14875087,0.61092341,-0.88521051
1312467954.16421509,0.14947826,0.61116308,-0.88449752
1312467954.22307587,0.14892434,0.61053216,-0.88465935
1312467954.27221370,0.14860828,0.60860449,-0.88331765
1312467954.32410431,0.14785545,0.61053872,-0.88418305
1312467954.37212372,0.14823070,0.61015838,-0.88483119
1312467954.42039394,0.15044729,0.61153364,-0.88430977
1312467954.47110128,0.15028398,0.61064702,-0.88485068
1312467954.52367377,0.14846043,0.60988396,-0.88333583
1312467954.57163715,0.14830193,0.61029714,-0.88590449
1312467954.62408853,0.14830294,0.61016935,-0.88590348
1312467954.67120862,0.14727283,0.60838217,-0.88500780
1312467954.72341228,0.14855273,0.60927784,-0.88642049
1312467954.77121282,0.14922194,0.61169779,-0.88640004
1312467954.82314396,0.14870101,0.60912186,-0.88398892
1312467954.87109351,0.14962611,0.60988361,-0.88447934
1312467954.92026591,0.14884974,0.61169475,-0.88574880
1312467954.97113132,0.14859070,0.61169487,-0.88549465
1312467955.02308059,0.14921808,0.60924953,-0.88449818
1312467955.07219052,0.14847122,0.60837555,-0.88561118
1312467955.12344885,0.14792663,0.60965675,-0.88538319
1312467955.16322947,0.14895156,0.61004132,-0.88653773
1312467955.22318339,0.14826508,0.60979378,-0.88657558
1312467955.27114820,0.14889364,0.61028284,-0.88519746
1312467955.32314181,0.14872423,0.61016291,-0.88574451
1312467955.37113380,0.14935140,0.61067700,-0.88665396
1312467955.42325592,0.14793995,0.61003697,-0.88511622
1312467955.47174716,0.14861915,0.60811681,-0.88546610
1312467955.52307248,0.14974022,0.60873818,-0.88500232
1312467955.57113099,0.14822465,0.61194587,-0.88471043
1312467955.62310863,0.14866017,0.61015046,-0.88453722
1312467955.67206216,0.14862642,0.61028451,-0.88507837
1312467955.72013593,0.14862230,0.60977495,-0.88520932
1312467955.77112389,0.14988521,0.61090428,-0.88460660
1312467955.82012153,0.15001194,0.60934889,-0.88270396
1312467955.87113190,0.14813390,0.61015218,-0.88416404
1312467955.92309737,0.14990696,0.60934424,-0.88217181
1312467955.97107339,0.14921808,0.60924953,-0.88449818
1312467956.02312183,0.14859599,0.60809648,-0.88358366
1312467956.07107258,0.14950477,0.60988212,-0.88421726
1312467956.12328053,0.14960359,0.60963273,-0.88488239
1312467956.16422772,0.14806952,0.61105764,-0.88511640
1312467956.22313952,0.14913562,0.60949570,-0.88356298
1312467956.27120042,0.14776577,0.60963804,-0.88350868
1312467956.32361722,0.14710490,0.61027873,-0.88301355
1312467956.37213326,0.14875011,0.60911250,-0.88317877
1312467956.42361736,0.14992504,0.61000353,-0.88405937
1312467956.47111011,0.14929177,0.61025614,-0.88315606
1312467956.52344036,0.14866149,0.60910469,-0.88237655
1312467956.57113099,0.15017088,0.61166465,-0.88432670
1312467956.62319565,0.15059039,0.60997516,-0.88213700
1312467956.67119884,0.14751185,0.61001986,-0.88312262
1312467956.72321200,0.14994857,0.61012661,-0.88365525
1312467956.77109981,0.14802086,0.61219054,-0.88351315
1312467956.82310867,0.14908893,0.60935229,-0.88208461
1312467956.87208581,0.14963830,0.60835016,-0.88446712
1312467956.92310500,0.14904605,0.61063647,-0.88263494
1312467956.97112465,0.14846754,0.60898948,-0.88332874
1312467957.02365541,0.14834112,0.60962689,-0.88307172
1312467957.07110453,0.14825626,0.61002588,-0.88442510
1312467957.12308621,0.14939268,0.61077195,-0.88369226
1312467957.16310883,0.14819321,0.60988563,-0.88321674
1312467957.22310948,0.15000457,0.61218214,-0.88474387
1312467957.27206802,0.14904301,0.61101979,-0.88263798
1312467957.32313609,0.14877674,0.60987294,-0.88264477
1312467957.37120390,0.14847589,0.61205012,-0.88281304
1312467957.42305470,0.14798839,0.61025810,-0.88202047
1312467957.47112155,0.15053648,0.60868478,-0.88091952
1312467957.52306604,0.14954910,0.60959369,-0.88125253
1312467957.57113361,0.14911120,0.61154187,-0.88371432
1312467957.62340832,0.14936022,0.60883951,-0.88219959
1312467957.67110896,0.14825657,0.60910797,-0.88226545
1312467957.72032905,0.14919080,0.60871959,-0.88274670
1312467957.77112126,0.15033200,0.60974467,-0.88416839
1312467957.82329059,0.14799652,0.60923582,-0.88201231
1312467957.87120080,0.14924107,0.61164463,-0.88155484
1312467957.92353964,0.14973044,0.61011887,-0.88272601
1312467957.97121191,0.14957434,0.61037916,-0.88300610
1312467958.02319884,0.14752005,0.61001831,-0.88298762
1312467958.07208443,0.14941515,0.61000210,-0.88341606
1312467958.12411499,0.14854845,0.61114305,-0.88172567
1312467958.16341352,0.14823203,0.60911262,-0.88267052
1312467958.22313929,0.14910744,0.61113507,-0.88155878
1312467958.27221298,0.14868824,0.61190659,-0.88158876
1312467958.32368493,0.15033376,0.60982239,-0.87959433
1312467958.37221193,0.15018900,0.61173928,-0.87948257
1312467958.42333078,0.14940530,0.61036199,-0.88126659
1312467958.47207975,0.14841577,0.60948497,-0.88185543
1312467958.52309656,0.14825283,0.60870111,-0.88010985
1312467958.57217836,0.14957167,0.61086529,-0.88072258
1312467958.62310004,0.14830679,0.61101222,-0.88120049
1312467958.67112041,0.14817460,0.61149836,-0.87878996
1312467958.72309589,0.15057136,0.61046439,-0.88012362
1312467958.77112222,0.14696960,0.61012751,-0.88073295
1312467958.82313275,0.14833160,0.60906881,-0.87876260
1312467958.87110567,0.14944316,0.61073750,-0.88059455
1312467958.92709804,0.14840390,0.61010045,-0.87970799
1312467958.97111750,0.14933552,0.61121899,-0.87777889
1312467959.02346730,0.14881936,0.60892212,-0.87752235
1312467959.07110786,0.15012343,0.60971034,-0.88081658
1312467959.12408543,0.14948615,0.61149484,-0.87979043
1312467959.16421962,0.14799389,0.61074269,-0.87960202
1312467959.22413039,0.14827031,0.61061168,-0.87958503
1312467959.27109313,0.15056767,0.61107832,-0.87784111
1312467959.32410479,0.14796960,0.60880864,-0.87797427
1312467959.37112236,0.14828047,0.60933381,-0.87957484
1312467959.42313004,0.14913267,0.61031514,-0.87670743
1312467959.47182059,0.14873150,0.61072522,-0.87875193
1312467959.52316546,0.14833400,0.60891598,-0.87647402
1312467959.57223511,0.14909449,0.61085761,-0.87953919
1312467959.62320089,0.14758688,0.60998076,-0.87961978
1312467959.67109394,0.14846936,0.61008793,-0.87862778
1312467959.72308445,0.14955251,0.60931307,-0.87896293
1312467959.77112913,0.14995439,0.60969317,-0.87907708
1312467959.82308507,0.14747271,0.61010545,-0.87922370
1312467959.87111831,0.14836305,0.61112905,-0.88025630
1312467959.92355633,0.14821914,0.60985589,-0.88052410
1312467959.97107697,0.14956044,0.61125022,-0.88086069
1312467960.02315760,0.14874983,0.60944581,-0.87860668
1312467960.07210326,0.14968483,0.61086839,-0.88111973
1312467960.12321377,0.14974108,0.61098516,-0.88017553
1312467960.16422582,0.14888412,0.60972476,-0.88088834
1312467960.22340798,0.15025923,0.61200577,-0.88055688
1312467960.27119780,0.14899220,0.61036682,-0.88129056
1312467960.32324815,0.14708923,0.60946661,-0.87883741
1312467960.37109375,0.14968178,0.61125171,-0.88112277
1312467960.42707896,0.14940123,0.61087316,-0.88127071
1312467960.47263956,0.14893010,0.60907799,-0.88020808
1312467960.52375031,0.14710319,0.60961634,-0.88085592
1312467960.57111788,0.14819978,0.61126316,-0.88067037
1312467960.62309289,0.14905815,0.61000311,-0.88069457
1312467960.67113018,0.15054874,0.61101109,-0.88088506
1312467960.72311163,0.14867662,0.60910851,-0.88030612
1312467960.77220440,0.14855389,0.61015296,-0.88220519
1312467960.82311583,0.14951015,0.60820413,-0.88025117
1312467960.87112331,0.14692971,0.61000752,-0.88140708
1312467960.92121959,0.14797299,0.60911274,-0.88241643
1312467960.97215533,0.14840861,0.60935879,-0.88198942
1312467961.02415562,0.15023451,0.60894829,-0.88134259
1312467961.07221246,0.14807534,0.61062425,-0.88053823
1312467961.12021518,0.14872193,0.61075181,-0.88117450
1312467961.17122436,0.14828356,0.61053807,-0.88208914
1312467961.22314334,0.14740792,0.60851514,-0.88320118
1312467961.27208352,0.14859544,0.60991454,-0.88381588
1312467961.32022429,0.14912838,0.61026967,-0.88176912
1312467961.37123346,0.14878443,0.61168987,-0.88274169
1312467961.42707705,0.14889605,0.61013007,-0.88290888
1312467961.47114325,0.14703737,0.60952610,-0.88422269
1312467961.52013183,0.14889508,0.61127853,-0.88278300
1312467961.57113147,0.14957118,0.60872108,-0.88326287
1312467961.62309551,0.14917049,0.61127537,-0.88276708
1312467961.67107224,0.14887090,0.60991132,-0.88379997
1312467961.72011971,0.14890268,0.61105388,-0.88313383
1312467961.77211905,0.14959745,0.61027890,-0.88308781
1312467961.82364416,0.14977498,0.60835534,-0.88265932
1312467961.87214541,0.14753550,0.60979176,-0.88320339
1312467961.92365885,0.14938445,0.60975277,-0.88395417
1312467961.97107244,0.14962307,0.61026698,-0.88448244
1312467962.02360153,0.14958589,0.60907626,-0.88070834
1312467962.07106566,0.14805138,0.60937768,-0.88335568
1312467962.12307596,0.14808309,0.60949916,-0.88281661
1312467962.16409850,0.14855695,0.60976952,-0.88220209
1312467962.22307229,0.14895988,0.60900092,-0.88244218
1312467962.27112079,0.14846323,0.61040080,-0.88140482
1312467962.32307291,0.14851439,0.61013579,-0.88059241
1312467962.37112117,0.14916173,0.61003280,-0.88351488
1312467962.42407608,0.14845732,0.60924661,-0.88346577
1312467962.47109246,0.14792085,0.60950547,-0.88322967
1312467962.52304673,0.14891946,0.60821170,-0.88275856
1312467962.57221770,0.14824851,0.61115098,-0.88214672
1312467962.62319756,0.14912471,0.60896271,-0.88154143
1312467962.67110109,0.15021718,0.61009991,-0.88148677
1312467962.72310901,0.14892200,0.60862529,-0.88311446
1312467962.76315212,0.14897834,0.60976315,-0.88204312
1312467962.82308555,0.15042189,0.61154586,-0.88291508
1312467962.87116909,0.14851201,0.61130959,-0.88275462
1312467962.92315173,0.14857325,0.60874540,-0.88205892
1312467962.97112179,0.14943828,0.61092275,-0.88337100
1312467963.02310562,0.14836496,0.60939866,-0.88315248
1312467963.07112980,0.14688775,0.60979193,-0.88256794
1312467963.12315679,0.15041567,0.61027086,-0.88317502
1312467963.16347075,0.14938396,0.60952926,-0.88444030
1312467963.22426558,0.14879763,0.61002821,-0.88272846
1312467963.27110791,0.14878646,0.61143422,-0.88273966
1312467963.32317781,0.14920045,0.60721767,-0.88322234
1312467963.37112927,0.14963596,0.61042392,-0.88470161
1312467963.42433596,0.15021963,0.61041123,-0.88412941
1312467963.47213674,0.14983809,0.60951662,-0.88374102
1312467963.52319837,0.14843720,0.60940957,-0.88422495
1312467963.57108283,0.14963792,0.60914731,-0.88482642
1312467963.62356043,0.14973575,0.60902572,-0.88549274
1312467963.67106891,0.14799340,0.61120701,-0.88453335
1312467963.72315454,0.14967066,0.60914105,-0.88428622
1312467963.77214885,0.14967851,0.61005765,-0.88631129
1312467963.82308292,0.14834656,0.60965741,-0.88342464
1312467963.87221861,0.15067884,0.60975951,-0.88342512
1312467963.92493606,0.14994201,0.60862815,-0.88440120
1312467963.97112489,0.15014082,0.61004347,-0.88547701
1312467964.02022052,0.14943506,0.60824329,-0.88375479
1312467964.07108045,0.14857250,0.60956085,-0.88650608
1312467964.12022352,0.14907886,0.61017627,-0.88486654
1312467964.17110825,0.14744647,0.60968119,-0.88468802
1312467964.22309136,0.14993903,0.61003256,-0.88427740
1312467964.27122688,0.14871532,0.60892016,-0.88649303
1312467964.32023120,0.15056358,0.60899103,-0.88315684
1312467964.37109804,0.14907123,0.60892630,-0.88741452
1312467964.42011452,0.14905944,0.61056286,-0.88513970
1312467964.47111392,0.14943923,0.60977393,-0.88349688
1312467964.52011442,0.14897387,0.61017162,-0.88433427
1312467964.57118726,0.14915320,0.61095256,-0.88581008
1312467964.62313056,0.15072851,0.60849851,-0.88502765
1312467964.67117214,0.14851968,0.60916328,-0.88516039
1312467964.72012496,0.14848830,0.60812354,-0.88353950
1312467964.77111125,0.14874023,0.60799724,-0.88392770
1312467964.82376361,0.15039620,0.60963643,-0.88357508
1312467964.87110329,0.14877781,0.61031204,-0.88528866
1312467964.92411637,0.14978486,0.60901630,-0.88468242
1312467964.97211528,0.15049313,0.61168462,-0.88398862
1312467965.02414823,0.14824116,0.60955000,-0.88517940
1312467965.07161927,0.15110017,0.60873210,-0.88339299
1312467965.12313986,0.15104909,0.61001813,-0.88407850
1312467965.17212462,0.14832769,0.60879242,-0.88611072
1312467965.22311330,0.14946339,0.60966647,-0.88537878
1312467965.27107167,0.14907987,0.61004847,-0.88486552
1312467965.32308412,0.14835840,0.60904181,-0.88557255
1312467965.37112021,0.14776969,0.61071455,-0.88602287
1312467965.42310929,0.14979519,0.61080110,-0.88429147
1312467965.47223878,0.15047868,0.60939020,-0.88451052
1312467965.52414298,0.14933479,0.60851771,-0.88537753
1312467965.57112336,0.14879210,0.60954356,-0.88514751
1312467965.62308311,0.15030408,0.60888833,-0.88518971
1312467965.66414714,0.14814603,0.61020631,-0.88667017
1312467965.72357321,0.14788119,0.61005509,-0.88426197
1312467965.77120972,0.14984706,0.61234742,-0.88551128
1312467965.82311749,0.14744331,0.60802269,-0.88494492
1312467965.87112045,0.14884223,0.60940635,-0.88433611
1312467965.92319369,0.14941433,0.61069685,-0.88606220
1312467965.97119761,0.14941433,0.61069685,-0.88606220
1312467966.02331781,0.14791185,0.60928351,-0.88385069
1312467966.07113051,0.14965390,0.60904139,-0.88684338
1312467966.12311482,0.14991920,0.61031640,-0.88683760
1312467966.16422105,0.14778392,0.60892510,-0.88600862
1312467966.22309041,0.14977267,0.61055017,-0.88469464
1312467966.27107453,0.14805375,0.61081254,-0.88358480
